UAE72N DTTA-OMDB

Flight info

Callsign UAE72N
Flight time 5h 35m
Altitude 29000
Route DIDON2A DIDON UR781 SONAK DCT DOBIX N4 ARLOS/N0472F390 UN4 SALUN N705 MMA P751 DASUM DCT FYM M872 WEJ J852 BOVET/N0485F410 J852 BDB Y214 RAPMA/N0479F290 Y214 RIBOT DCT ELUDA DCT MUSAP DCT KIPOK DCT NALNU DCT IMPED
Aircraft A359/H-SDE2E3GHIJ1J3J4J5LM1ORWXY/LB1D1

Departure

Time 2026-05-07 13:47
Airport Tunis Carthage International Airport (DTTA)

Arrival

Time 2026-05-07 19:22
Airport Dubai International Airport (OMDB)
Time Latitude Longitude Altitude Speed Heading
2026-05-07 13:05 36.84521 10.21953 37 ft 0 kts 356°
2026-05-07 13:05 36.84529 10.21952 37 ft 0 kts 356°
2026-05-07 13:36 36.84521 10.21953 36 ft 4 kts 356°
2026-05-07 13:37 36.84494 10.21955 36 ft 4 kts 356°
2026-05-07 13:37 36.84469 10.21957 36 ft 3 kts 355°
2026-05-07 13:37 36.84449 10.21965 35 ft 4 kts 290°
2026-05-07 13:37 36.84450 10.21995 36 ft 4 kts 250°
2026-05-07 13:38 36.84451 10.22001 36 ft 0 kts 248°
2026-05-07 13:39 36.84461 10.22028 36 ft 4 kts 240°
2026-05-07 13:39 36.84470 10.22046 36 ft 4 kts 235°
2026-05-07 13:40 36.84470 10.22045 36 ft 0 kts 235°
2026-05-07 13:40 36.84470 10.22046 36 ft 0 kts 235°
2026-05-07 13:42 36.84464 10.22034 36 ft 5 kts 235°
2026-05-07 13:42 36.84424 10.21986 36 ft 11 kts 207°
2026-05-07 13:42 36.84331 10.21954 36 ft 17 kts 193°
2026-05-07 13:42 36.84207 10.21920 37 ft 19 kts 192°
2026-05-07 13:43 36.84076 10.21886 36 ft 20 kts 192°
2026-05-07 13:43 36.83943 10.21853 36 ft 15 kts 178°
2026-05-07 13:43 36.83893 10.21951 36 ft 15 kts 101°
2026-05-07 13:43 36.83872 10.22083 36 ft 16 kts 101°
2026-05-07 13:44 36.83872 10.22205 37 ft 0 kts 72°
2026-05-07 13:45 36.83873 10.22211 37 ft 2 kts 72°
2026-05-07 13:45 36.83885 10.22250 37 ft 8 kts 64°
2026-05-07 13:45 36.83924 10.22340 38 ft 15 kts 62°
2026-05-07 13:45 36.83984 10.22393 37 ft 0 kts 12°
2026-05-07 13:46 36.84061 10.22414 38 ft 40 kts 12°
2026-05-07 13:46 36.84547 10.22548 34 ft 103 kts 12°
2026-05-07 13:46 36.85430 10.22787 40 ft 155 kts 12°
2026-05-07 13:46 36.86579 10.23096 469 ft 166 kts 12°
2026-05-07 13:47 36.87650 10.23391 1360 ft 153 kts 13°
2026-05-07 13:47 36.88758 10.23739 1677 ft 176 kts 12°
2026-05-07 13:47 36.90025 10.24085 1955 ft 197 kts 12°
2026-05-07 13:47 36.91421 10.24448 2427 ft 209 kts 12°
2026-05-07 13:48 36.92849 10.24823 3112 ft 211 kts 12°
2026-05-07 13:48 36.94312 10.25141 3790 ft 216 kts
2026-05-07 13:48 36.95790 10.24798 4394 ft 221 kts 333°
2026-05-07 13:48 36.96887 10.23477 5027 ft 224 kts 299°
2026-05-07 13:49 36.97205 10.21599 5667 ft 228 kts 265°
2026-05-07 13:49 36.96600 10.19754 6343 ft 234 kts 231°
2026-05-07 13:49 36.95239 10.18658 6985 ft 240 kts 195°
2026-05-07 13:49 36.93574 10.18541 7687 ft 242 kts 177°
2026-05-07 13:50 36.91886 10.18729 8366 ft 246 kts 172°
2026-05-07 13:50 36.90247 10.19397 8988 ft 251 kts 153°
2026-05-07 13:50 36.88711 10.20464 9647 ft 255 kts 150°
2026-05-07 13:50 36.87179 10.21594 10326 ft 257 kts 152°
2026-05-07 13:51 36.85667 10.22793 10983 ft 261 kts 145°
2026-05-07 13:51 36.84457 10.24547 11506 ft 277 kts 125°
2026-05-07 13:51 36.83487 10.26719 11806 ft 298 kts 121°
2026-05-07 13:51 36.82504 10.29089 12092 ft 317 kts 122°
2026-05-07 13:52 36.81458 10.31595 12388 ft 334 kts 122°
2026-05-07 13:52 36.80349 10.34221 12707 ft 351 kts 122°
2026-05-07 13:52 36.79367 10.37096 12981 ft 373 kts 106°
2026-05-07 13:52 36.79220 10.40403 13290 ft 391 kts 86°
2026-05-07 13:53 36.79706 10.43744 13680 ft 402 kts 77°
2026-05-07 13:53 36.80248 10.47194 14175 ft 408 kts 84°
2026-05-07 13:53 36.80391 10.50738 14735 ft 410 kts 94°
2026-05-07 13:53 36.80107 10.54271 15322 ft 411 kts 103°
2026-05-07 13:54 36.79525 10.57769 15891 ft 413 kts 106°
2026-05-07 13:54 36.78864 10.61282 16470 ft 417 kts 107°
2026-05-07 13:54 36.78417 10.63617 16861 ft 419 kts 107°
2026-05-07 13:54 36.77737 10.67152 17473 ft 421 kts 107°
2026-05-07 13:55 36.77038 10.70771 18059 ft 425 kts 107°
2026-05-07 13:55 36.76341 10.74370 18597 ft 429 kts 107°
2026-05-07 13:55 36.75644 10.77957 19111 ft 433 kts 107°
2026-05-07 13:55 36.74933 10.81620 19635 ft 437 kts 107°
2026-05-07 13:56 36.74212 10.85323 20099 ft 442 kts 107°
2026-05-07 13:56 36.73484 10.89058 20592 ft 447 kts 107°
2026-05-07 13:56 36.72744 10.92847 21067 ft 450 kts 107°
2026-05-07 13:56 36.71992 10.96646 21425 ft 454 kts 108°
2026-05-07 13:57 36.71238 11.00492 21853 ft 459 kts 107°
2026-05-07 13:57 36.70486 11.04382 22430 ft 463 kts 107°
2026-05-07 13:57 36.69745 11.08295 22981 ft 466 kts 107°
2026-05-07 13:57 36.69010 11.12224 23371 ft 468 kts 106°
2026-05-07 13:58 36.68285 11.16187 23675 ft 474 kts 106°
2026-05-07 13:58 36.67549 11.20213 24139 ft 477 kts 106°
2026-05-07 13:58 36.66802 11.24262 24627 ft 482 kts 106°
2026-05-07 13:58 36.66063 11.28349 25113 ft 485 kts 106°
2026-05-07 13:59 36.65320 11.32422 25434 ft 489 kts 107°
2026-05-07 13:59 36.64548 11.36567 25757 ft 494 kts 107°
2026-05-07 13:59 36.63762 11.40738 26174 ft 495 kts 107°
2026-05-07 13:59 36.62961 11.44928 26497 ft 502 kts 107°
2026-05-07 14:00 36.62155 11.49165 26948 ft 503 kts 107°
2026-05-07 14:00 36.61357 11.53421 27263 ft 506 kts 107°
2026-05-07 14:00 36.60544 11.57718 27627 ft 511 kts 107°
2026-05-07 14:00 36.59725 11.62044 27995 ft 515 kts 107°
2026-05-07 14:01 36.58903 11.66389 28382 ft 517 kts 108°
2026-05-07 14:01 36.58070 11.70755 28723 ft 519 kts 108°
2026-05-07 14:01 36.57232 11.75142 28869 ft 521 kts 108°
2026-05-07 14:01 36.56407 11.79475 28886 ft 507 kts 108°
2026-05-07 14:02 36.55605 11.83698 28885 ft 499 kts 108°
2026-05-07 14:02 36.54006 11.92042 28889 ft 495 kts 108°
2026-05-07 14:03 36.52400 12.00405 28890 ft 498 kts 108°
2026-05-07 14:03 36.50788 12.08818 28889 ft 500 kts 108°
2026-05-07 14:04 36.49532 12.17330 28880 ft 501 kts 102°
2026-05-07 14:04 36.48561 12.25915 28878 ft 502 kts 101°
2026-05-07 14:05 36.47635 12.34524 28879 ft 502 kts 101°
2026-05-07 14:05 36.46700 12.43133 28879 ft 503 kts 101°
2026-05-07 14:06 36.45752 12.51744 28878 ft 503 kts 101°
2026-05-07 14:06 36.44803 12.60285 28877 ft 503 kts 101°
2026-05-07 14:07 36.43837 12.68906 28869 ft 503 kts 101°
2026-05-07 14:07 36.42866 12.77527 28869 ft 504 kts 101°
2026-05-07 14:08 36.41888 12.86147 28869 ft 504 kts 101°
2026-05-07 14:08 36.40904 12.94767 28859 ft 504 kts 101°
2026-05-07 14:09 36.39913 13.03377 28860 ft 504 kts 101°
2026-05-07 14:09 36.38913 13.12003 28859 ft 504 kts 101°
2026-05-07 14:10 36.37912 13.20612 28860 ft 504 kts 101°
2026-05-07 14:10 36.36907 13.29228 28860 ft 505 kts 101°
2026-05-07 14:11 36.35888 13.37848 28851 ft 505 kts 101°
2026-05-07 14:11 36.34869 13.46405 28850 ft 505 kts 101°
2026-05-07 14:12 36.33839 13.55019 28850 ft 505 kts 101°
2026-05-07 14:12 36.32804 13.63632 28850 ft 505 kts 101°
2026-05-07 14:13 36.31763 13.72237 28850 ft 504 kts 101°
2026-05-07 14:13 36.30717 13.80827 28851 ft 504 kts 101°
2026-05-07 14:14 36.29667 13.89396 28839 ft 503 kts 101°
2026-05-07 14:14 36.28610 13.97976 28841 ft 503 kts 101°
2026-05-07 14:15 36.27546 14.06549 28838 ft 503 kts 101°
2026-05-07 14:15 36.26477 14.15121 28843 ft 503 kts 101°
2026-05-07 14:16 36.25403 14.23682 28845 ft 503 kts 101°
2026-05-07 14:16 36.24319 14.32254 28839 ft 504 kts 101°
2026-05-07 14:17 36.23230 14.40835 28838 ft 504 kts 101°
2026-05-07 14:17 36.22133 14.49421 28835 ft 505 kts 101°
2026-05-07 14:18 36.21028 14.58018 28828 ft 506 kts 101°
2026-05-07 14:18 36.19918 14.66630 28838 ft 507 kts 101°
2026-05-07 14:19 36.18795 14.75243 28846 ft 507 kts 101°
2026-05-07 14:19 36.17668 14.83874 28846 ft 508 kts 101°
2026-05-07 14:20 36.16532 14.92521 28847 ft 510 kts 101°
2026-05-07 14:20 36.15388 15.01132 28839 ft 511 kts 100°
2026-05-07 14:21 36.14233 15.09811 28839 ft 512 kts 100°
2026-05-07 14:21 36.13072 15.18514 28837 ft 513 kts 100°
2026-05-07 14:22 36.11898 15.27220 28840 ft 513 kts 100°
2026-05-07 14:22 36.10724 15.35926 28851 ft 514 kts 100°
2026-05-07 14:23 36.09536 15.44645 28851 ft 515 kts 100°
2026-05-07 14:23 36.08344 15.53378 28851 ft 515 kts 100°
2026-05-07 14:24 36.07149 15.62098 28850 ft 515 kts 100°
2026-05-07 14:24 36.05938 15.70849 28850 ft 516 kts 100°
2026-05-07 14:25 36.04720 15.79581 28850 ft 516 kts 100°
2026-05-07 14:25 36.03495 15.88313 28853 ft 516 kts 100°
2026-05-07 14:26 36.02261 15.97043 28860 ft 516 kts 100°
2026-05-07 14:26 36.01025 16.05766 28860 ft 516 kts 100°
2026-05-07 14:27 35.99783 16.14491 28860 ft 516 kts 100°
2026-05-07 14:27 35.98534 16.23215 28860 ft 516 kts 100°
2026-05-07 14:28 35.97291 16.31860 28884 ft 515 kts 100°
2026-05-07 14:28 35.96043 16.40556 28896 ft 514 kts 100°
2026-05-07 14:29 35.94782 16.49239 28897 ft 514 kts 100°
2026-05-07 14:29 35.93516 16.57922 28897 ft 514 kts 100°
2026-05-07 14:30 35.92244 16.66604 28901 ft 513 kts 100°
2026-05-07 14:30 35.90967 16.75255 28902 ft 512 kts 100°
2026-05-07 14:31 35.89689 16.83901 28907 ft 512 kts 100°
2026-05-07 14:31 35.88400 16.92537 28907 ft 513 kts 100°
2026-05-07 14:32 35.87015 17.01156 28916 ft 512 kts 102°
2026-05-07 14:32 35.85427 17.09695 28954 ft 512 kts 103°
2026-05-07 14:33 35.83829 17.18246 28953 ft 512 kts 102°
2026-05-07 14:33 35.82256 17.26805 28953 ft 513 kts 102°
2026-05-07 14:34 35.80701 17.35307 28952 ft 511 kts 102°
2026-05-07 14:34 35.79124 17.43913 28967 ft 511 kts 102°
2026-05-07 14:35 35.77567 17.52382 28968 ft 511 kts 102°
2026-05-07 14:35 35.75986 17.60921 28968 ft 512 kts 102°
2026-05-07 14:36 35.74400 17.69459 28968 ft 512 kts 102°
2026-05-07 14:36 35.72804 17.78003 28981 ft 512 kts 102°
2026-05-07 14:37 35.71201 17.86542 28981 ft 512 kts 102°
2026-05-07 14:37 35.68789 17.99353 28979 ft 512 kts 102°
2026-05-07 14:38 35.67171 18.07904 28988 ft 512 kts 102°
2026-05-07 14:38 35.65550 18.16429 28991 ft 512 kts 102°
2026-05-07 14:39 35.63926 18.24949 28988 ft 512 kts 102°
2026-05-07 14:39 35.62300 18.33462 29006 ft 511 kts 102°
2026-05-07 14:40 35.60663 18.41975 29066 ft 511 kts 102°
2026-05-07 14:40 35.59026 18.50415 29063 ft 511 kts 102°
2026-05-07 14:41 35.57377 18.58904 29059 ft 511 kts 102°
2026-05-07 14:41 35.55724 18.67385 29069 ft 511 kts 102°
2026-05-07 14:42 35.54058 18.75900 29071 ft 512 kts 102°
2026-05-07 14:42 35.52669 18.82965 29074 ft 512 kts 102°
2026-05-07 14:43 35.50996 18.91455 29073 ft 512 kts 102°
2026-05-07 14:43 35.49315 18.99947 29074 ft 512 kts 102°
2026-05-07 14:44 35.47633 19.08427 29070 ft 512 kts 102°
2026-05-07 14:44 35.45942 19.16909 29072 ft 512 kts 102°
2026-05-07 14:45 35.44248 19.25382 29072 ft 511 kts 102°
2026-05-07 14:45 35.42546 19.33850 29075 ft 512 kts 102°
2026-05-07 14:46 35.40837 19.42308 29070 ft 511 kts 102°
2026-05-07 14:46 35.39124 19.50770 29074 ft 513 kts 102°
2026-05-07 14:47 35.37399 19.59238 29075 ft 512 kts 102°
2026-05-07 14:47 35.35671 19.67710 29071 ft 512 kts 102°
2026-05-07 14:48 35.33936 19.76177 29073 ft 513 kts 102°
2026-05-07 14:48 35.32196 19.84639 29071 ft 513 kts 102°
2026-05-07 14:49 35.30449 19.93114 29069 ft 513 kts 102°
2026-05-07 14:49 35.28702 20.01573 29084 ft 513 kts 102°
2026-05-07 14:50 35.26937 20.10021 29083 ft 511 kts 102°
2026-05-07 14:50 35.25178 20.18429 29080 ft 510 kts 102°
2026-05-07 14:51 35.23420 20.26829 29100 ft 509 kts 102°
2026-05-07 14:51 35.21656 20.35206 29100 ft 509 kts 102°
2026-05-07 14:52 35.19885 20.43580 29106 ft 508 kts 102°
2026-05-07 14:52 35.18119 20.51922 29112 ft 507 kts 102°
2026-05-07 14:53 35.16349 20.60249 29112 ft 506 kts 102°
2026-05-07 14:53 35.14572 20.68584 29112 ft 505 kts 102°
2026-05-07 14:54 35.12792 20.76883 29112 ft 505 kts 102°
2026-05-07 14:54 35.11019 20.85105 29108 ft 504 kts 102°
2026-05-07 14:55 35.09234 20.93385 29113 ft 503 kts 102°
2026-05-07 14:55 35.07452 21.01629 29107 ft 503 kts 102°
2026-05-07 14:56 35.05664 21.09876 29112 ft 502 kts 102°
2026-05-07 14:56 35.03866 21.18105 29112 ft 501 kts 102°
2026-05-07 14:57 35.02065 21.26309 29113 ft 501 kts 102°
2026-05-07 14:57 35.00259 21.34518 29118 ft 500 kts 102°
2026-05-07 14:58 34.98462 21.42691 29119 ft 499 kts 102°
2026-05-07 14:58 34.96656 21.50860 29119 ft 499 kts 102°
2026-05-07 14:59 34.94848 21.59023 29119 ft 499 kts 102°
2026-05-07 14:59 34.93033 21.67168 29119 ft 498 kts 103°
2026-05-07 15:00 34.91208 21.75315 29119 ft 498 kts 103°
2026-05-07 15:00 34.89382 21.83448 29119 ft 498 kts 103°
2026-05-07 15:01 34.87549 21.91585 29119 ft 497 kts 103°
2026-05-07 15:01 34.85714 21.99705 29119 ft 497 kts 103°
2026-05-07 15:02 34.83875 22.07816 29127 ft 496 kts 103°
2026-05-07 15:02 34.82049 22.15838 29128 ft 494 kts 103°
2026-05-07 15:03 34.80212 22.23886 29128 ft 494 kts 103°
2026-05-07 15:03 34.78371 22.31932 29129 ft 494 kts 103°
2026-05-07 15:04 34.76525 22.39975 29128 ft 494 kts 103°
2026-05-07 15:04 34.74667 22.48038 29127 ft 494 kts 103°
2026-05-07 15:05 34.72799 22.56116 29129 ft 498 kts 102°
2026-05-07 15:05 34.70921 22.64203 29128 ft 498 kts 102°
2026-05-07 15:06 34.69033 22.72319 29128 ft 498 kts 102°
2026-05-07 15:06 34.67140 22.80432 29128 ft 498 kts 102°
2026-05-07 15:07 34.65241 22.88522 29128 ft 498 kts 102°
2026-05-07 15:07 34.63345 22.96601 29158 ft 497 kts 102°
2026-05-07 15:08 34.60686 23.04426 29417 ft 514 kts 114°
2026-05-07 15:08 34.59083 23.08348 29597 ft 522 kts 115°
2026-05-07 15:08 34.57417 23.12294 29849 ft 528 kts 115°
2026-05-07 15:09 34.55714 23.16267 30154 ft 533 kts 116°
2026-05-07 15:09 34.53995 23.20265 30493 ft 536 kts 115°
2026-05-07 15:09 34.52267 23.24292 30762 ft 541 kts 115°
2026-05-07 15:09 34.50525 23.28360 31020 ft 545 kts 115°
2026-05-07 15:10 34.48778 23.32448 31288 ft 549 kts 115°
2026-05-07 15:10 34.47014 23.36577 31605 ft 552 kts 115°
2026-05-07 15:10 34.45243 23.40726 31833 ft 556 kts 115°
2026-05-07 15:10 34.43459 23.44903 32070 ft 560 kts 115°
2026-05-07 15:11 34.41663 23.49103 32290 ft 564 kts 115°
2026-05-07 15:11 34.39854 23.53328 32521 ft 566 kts 115°
2026-05-07 15:11 34.38032 23.57575 32735 ft 570 kts 115°
2026-05-07 15:11 34.36198 23.61840 32955 ft 573 kts 115°
2026-05-07 15:12 34.34354 23.66126 33189 ft 576 kts 115°
2026-05-07 15:12 34.32496 23.70445 33363 ft 579 kts 115°
2026-05-07 15:12 34.30627 23.74779 33554 ft 583 kts 115°
2026-05-07 15:12 34.28746 23.79136 33727 ft 586 kts 115°
2026-05-07 15:13 34.26856 23.83508 34058 ft 586 kts 115°
2026-05-07 15:13 34.24969 23.87867 34330 ft 587 kts 115°
2026-05-07 15:13 34.23070 23.92242 34614 ft 587 kts 115°
2026-05-07 15:13 34.21177 23.96600 34951 ft 586 kts 115°
2026-05-07 15:14 34.19285 24.00961 35293 ft 586 kts 115°
2026-05-07 15:14 34.17392 24.05313 35574 ft 584 kts 115°
2026-05-07 15:14 34.15500 24.09649 35813 ft 584 kts 115°
2026-05-07 15:14 34.13604 24.13997 36147 ft 586 kts 115°
2026-05-07 15:15 34.11698 24.18332 36529 ft 584 kts 115°
2026-05-07 15:15 34.09802 24.22650 36873 ft 582 kts 114°
2026-05-07 15:15 34.07942 24.26920 37142 ft 581 kts 114°
2026-05-07 15:15 34.06069 24.31221 37565 ft 580 kts 114°
2026-05-07 15:16 34.04184 24.35508 38034 ft 574 kts 114°
2026-05-07 15:16 34.02320 24.39751 38339 ft 572 kts 114°
2026-05-07 15:16 34.00236 24.43831 38305 ft 574 kts 125°
2026-05-07 15:16 33.97607 24.47474 38181 ft 580 kts 135°
2026-05-07 15:17 33.94699 24.50853 38315 ft 580 kts 137°
2026-05-07 15:17 33.91720 24.54125 38541 ft 579 kts 139°
2026-05-07 15:17 33.88706 24.57341 38752 ft 578 kts 139°
2026-05-07 15:17 33.85684 24.60532 38894 ft 578 kts 139°
2026-05-07 15:18 33.82663 24.63722 39028 ft 578 kts 139°
2026-05-07 15:18 33.79639 24.66926 39122 ft 579 kts 139°
2026-05-07 15:18 33.73614 24.73343 39128 ft 578 kts 139°
2026-05-07 15:19 33.67610 24.79763 39128 ft 578 kts 139°
2026-05-07 15:19 33.61604 24.86174 39128 ft 578 kts 139°
2026-05-07 15:20 33.55589 24.92578 39128 ft 578 kts 139°
2026-05-07 15:20 33.49570 24.98968 39128 ft 578 kts 139°
2026-05-07 15:21 33.43548 25.05348 39128 ft 578 kts 139°
2026-05-07 15:21 33.37516 25.11729 39132 ft 578 kts 139°
2026-05-07 15:22 33.31495 25.18087 39139 ft 578 kts 139°
2026-05-07 15:22 33.25467 25.24445 39132 ft 578 kts 139°
2026-05-07 15:23 33.19425 25.30801 39149 ft 578 kts 139°
2026-05-07 15:23 33.13428 25.37095 39149 ft 578 kts 139°
2026-05-07 15:24 33.07382 25.43432 39146 ft 578 kts 139°
2026-05-07 15:24 33.01343 25.49750 39149 ft 578 kts 139°
2026-05-07 15:25 32.95292 25.56071 39150 ft 578 kts 139°
2026-05-07 15:25 32.89247 25.62373 39147 ft 578 kts 139°
2026-05-07 15:26 32.83201 25.68655 39148 ft 577 kts 139°
2026-05-07 15:26 32.77143 25.74942 39149 ft 577 kts 139°
2026-05-07 15:27 32.71094 25.81213 39148 ft 577 kts 139°
2026-05-07 15:27 32.65043 25.87472 39147 ft 577 kts 139°
2026-05-07 15:28 32.58995 25.93720 39141 ft 576 kts 139°
2026-05-07 15:28 32.53973 25.98899 39149 ft 576 kts 139°
2026-05-07 15:29 32.47914 26.05128 39148 ft 577 kts 139°
2026-05-07 15:29 32.41845 26.11357 39147 ft 576 kts 139°
2026-05-07 15:30 32.35783 26.17569 39148 ft 576 kts 139°
2026-05-07 15:30 32.29724 26.23771 39157 ft 576 kts 139°
2026-05-07 15:31 32.23663 26.29961 39150 ft 576 kts 139°
2026-05-07 15:31 32.17603 26.36137 39153 ft 575 kts 139°
2026-05-07 15:32 32.11537 26.42306 39152 ft 575 kts 139°
2026-05-07 15:32 32.05480 26.48464 39155 ft 575 kts 139°
2026-05-07 15:33 31.99408 26.54619 39156 ft 575 kts 139°
2026-05-07 15:33 31.93337 26.60759 39157 ft 574 kts 139°
2026-05-07 15:34 31.87271 26.66887 39159 ft 574 kts 139°
2026-05-07 15:34 31.81217 26.72991 39153 ft 573 kts 139°
2026-05-07 15:35 31.75162 26.79085 39155 ft 573 kts 139°
2026-05-07 15:35 31.69112 26.85161 39157 ft 572 kts 139°
2026-05-07 15:36 31.63052 26.91240 39158 ft 572 kts 139°
2026-05-07 15:36 31.57000 26.97301 39157 ft 572 kts 139°
2026-05-07 15:37 31.50947 27.03350 39151 ft 571 kts 139°
2026-05-07 15:37 31.44899 27.09384 39157 ft 571 kts 139°
2026-05-07 15:38 31.38847 27.15412 39156 ft 571 kts 139°
2026-05-07 15:38 31.32917 27.21546 39152 ft 569 kts 131°
2026-05-07 15:39 31.28103 27.28843 39157 ft 564 kts 121°
2026-05-07 15:39 31.23690 27.36410 39157 ft 563 kts 120°
2026-05-07 15:40 31.19361 27.43970 39153 ft 563 kts 120°
2026-05-07 15:40 31.14984 27.51554 39155 ft 564 kts 120°
2026-05-07 15:41 31.10583 27.59115 39152 ft 563 kts 120°
2026-05-07 15:41 31.06143 27.66636 39141 ft 562 kts 121°
2026-05-07 15:42 31.01699 27.74142 39148 ft 562 kts 121°
2026-05-07 15:42 30.97270 27.81625 39131 ft 561 kts 121°
2026-05-07 15:43 30.92837 27.89111 39139 ft 561 kts 121°
2026-05-07 15:43 30.88408 27.96573 39131 ft 559 kts 121°
2026-05-07 15:44 30.83985 28.04013 39142 ft 558 kts 121°
2026-05-07 15:44 30.79580 28.11403 39126 ft 554 kts 121°
2026-05-07 15:45 30.75188 28.18765 39128 ft 553 kts 121°
2026-05-07 15:45 30.70798 28.26106 39127 ft 552 kts 121°
2026-05-07 15:46 30.64219 28.37087 39128 ft 552 kts 121°
2026-05-07 15:47 30.59837 28.44384 39131 ft 551 kts 121°
2026-05-07 15:47 30.55455 28.51666 39128 ft 550 kts 121°
2026-05-07 15:48 30.51074 28.58932 39128 ft 549 kts 121°
2026-05-07 15:48 30.46698 28.66182 39119 ft 549 kts 121°
2026-05-07 15:49 30.42348 28.73368 39118 ft 548 kts 121°
2026-05-07 15:49 30.37970 28.80589 39119 ft 547 kts 121°
2026-05-07 15:50 30.33601 28.87782 39119 ft 546 kts 121°
2026-05-07 15:50 30.29235 28.94959 39111 ft 545 kts 122°
2026-05-07 15:51 30.24871 29.02120 39110 ft 544 kts 122°
2026-05-07 15:51 30.20515 29.09254 39110 ft 542 kts 122°
2026-05-07 15:52 30.16171 29.16356 39110 ft 541 kts 122°
2026-05-07 15:52 30.11829 29.23444 39101 ft 539 kts 122°
2026-05-07 15:53 30.07502 29.30491 39109 ft 537 kts 122°
2026-05-07 15:53 30.03185 29.37524 39110 ft 536 kts 122°
2026-05-07 15:54 29.98871 29.44533 39109 ft 535 kts 123°
2026-05-07 15:54 29.94565 29.51509 39109 ft 533 kts 123°
2026-05-07 15:55 29.90266 29.58466 39110 ft 532 kts 123°
2026-05-07 15:55 29.86007 29.65342 39085 ft 531 kts 123°
2026-05-07 15:56 29.81707 29.72280 39071 ft 532 kts 123°
2026-05-07 15:56 29.77408 29.79195 39072 ft 531 kts 123°
2026-05-07 15:57 29.73107 29.86106 39076 ft 531 kts 123°
2026-05-07 15:57 29.68799 29.93013 39064 ft 531 kts 123°
2026-05-07 15:58 29.64489 29.99912 39063 ft 531 kts 123°
2026-05-07 15:58 29.60175 30.06808 39063 ft 530 kts 123°
2026-05-07 15:59 29.55869 30.13692 39064 ft 530 kts 123°
2026-05-07 15:59 29.51561 30.20561 39063 ft 530 kts 124°
2026-05-07 16:00 29.47241 30.27432 39065 ft 530 kts 124°
2026-05-07 16:00 29.42920 30.34291 39056 ft 530 kts 124°
2026-05-07 16:01 29.38362 30.40921 39056 ft 531 kts 131°
2026-05-07 16:01 29.33320 30.47079 39054 ft 530 kts 133°
2026-05-07 16:02 29.28195 30.53158 39054 ft 530 kts 134°
2026-05-07 16:02 29.23070 30.59230 39054 ft 529 kts 134°
2026-05-07 16:03 29.17962 30.65291 39061 ft 529 kts 134°
2026-05-07 16:03 29.12861 30.71348 39064 ft 529 kts 134°
2026-05-07 16:04 29.07757 30.77402 39063 ft 528 kts 134°
2026-05-07 16:04 29.02649 30.83450 39063 ft 528 kts 134°
2026-05-07 16:05 28.97553 30.89472 39063 ft 527 kts 134°
2026-05-07 16:05 28.92449 30.95490 39054 ft 527 kts 134°
2026-05-07 16:06 28.87353 31.01496 39054 ft 526 kts 134°
2026-05-07 16:06 28.82271 31.07483 39035 ft 525 kts 134°
2026-05-07 16:07 28.77201 31.13460 39035 ft 523 kts 135°
2026-05-07 16:07 28.72156 31.19370 39035 ft 522 kts 135°
2026-05-07 16:08 28.67112 31.25350 39039 ft 527 kts 133°
2026-05-07 16:08 28.62235 31.31553 39038 ft 524 kts 132°
2026-05-07 16:09 28.57384 31.37734 39038 ft 522 kts 133°
2026-05-07 16:09 28.52536 31.43856 39038 ft 522 kts 133°
2026-05-07 16:10 28.47662 31.49960 39036 ft 521 kts 133°
2026-05-07 16:10 28.42800 31.56066 39026 ft 522 kts 133°
2026-05-07 16:11 28.37960 31.62112 39027 ft 519 kts 133°
2026-05-07 16:11 28.33099 31.68199 39029 ft 516 kts 133°
2026-05-07 16:12 28.28271 31.74245 39006 ft 518 kts 133°
2026-05-07 16:12 28.23423 31.80270 39005 ft 516 kts 134°
2026-05-07 16:13 28.18579 31.86255 38993 ft 517 kts 134°
2026-05-07 16:13 28.13743 31.92260 38986 ft 513 kts 133°
2026-05-07 16:14 28.09731 31.97250 38986 ft 515 kts 134°
2026-05-07 16:14 28.04920 32.03263 38976 ft 517 kts 131°
2026-05-07 16:15 28.00970 32.10070 38983 ft 518 kts 120°
2026-05-07 16:15 27.97489 32.17202 38971 ft 518 kts 119°
2026-05-07 16:16 27.94069 32.24375 38975 ft 518 kts 119°
2026-05-07 16:16 27.90631 32.31545 38963 ft 518 kts 119°
2026-05-07 16:17 27.87179 32.38696 38955 ft 518 kts 119°
2026-05-07 16:17 27.83718 32.45836 38952 ft 518 kts 120°
2026-05-07 16:18 27.80246 32.52985 38942 ft 519 kts 120°
2026-05-07 16:18 27.76773 32.60125 38906 ft 519 kts 120°
2026-05-07 16:19 27.73301 32.67254 38908 ft 518 kts 120°
2026-05-07 16:19 27.69826 32.74378 38905 ft 518 kts 120°
2026-05-07 16:20 27.66371 32.81449 38909 ft 518 kts 120°
2026-05-07 16:20 27.62863 32.88613 38905 ft 518 kts 121°
2026-05-07 16:21 27.59414 32.95648 38911 ft 517 kts 121°
2026-05-07 16:21 27.55937 33.02729 38904 ft 517 kts 121°
2026-05-07 16:22 27.52444 33.09832 38906 ft 516 kts 121°
2026-05-07 16:22 27.48960 33.16902 38905 ft 516 kts 121°
2026-05-07 16:23 27.45477 33.23958 38907 ft 515 kts 122°
2026-05-07 16:23 27.41997 33.30999 38906 ft 515 kts 122°
2026-05-07 16:24 27.38509 33.38041 38905 ft 515 kts 122°
2026-05-07 16:24 27.35021 33.45069 38909 ft 514 kts 122°
2026-05-07 16:25 27.31531 33.52090 38906 ft 514 kts 122°
2026-05-07 16:25 27.28039 33.59103 38907 ft 514 kts 122°
2026-05-07 16:26 27.24545 33.66105 38903 ft 513 kts 122°
2026-05-07 16:26 27.21051 33.73104 38907 ft 513 kts 122°
2026-05-07 16:27 27.17688 33.80187 38933 ft 516 kts 116°
2026-05-07 16:27 27.14914 33.87635 38915 ft 517 kts 115°
2026-05-07 16:28 27.12254 33.95130 38905 ft 517 kts 114°
2026-05-07 16:28 27.09598 34.02652 38917 ft 518 kts 115°
2026-05-07 16:29 27.06949 34.10105 38913 ft 517 kts 116°
2026-05-07 16:29 27.04276 34.17581 38918 ft 516 kts 116°
2026-05-07 16:30 27.01604 34.25041 38915 ft 516 kts 116°
2026-05-07 16:30 26.98923 34.32512 38915 ft 516 kts 116°
2026-05-07 16:31 26.96236 34.39971 38915 ft 516 kts 116°
2026-05-07 16:31 26.93545 34.47432 38915 ft 516 kts 116°
2026-05-07 16:32 26.90853 34.54886 38914 ft 516 kts 116°
2026-05-07 16:32 26.88155 34.62343 38917 ft 516 kts 117°
2026-05-07 16:33 26.85451 34.69797 38913 ft 516 kts 117°
2026-05-07 16:33 26.82743 34.77250 38916 ft 516 kts 117°
2026-05-07 16:34 26.80056 34.84632 38918 ft 516 kts 117°
2026-05-07 16:34 26.77347 34.92067 38917 ft 516 kts 117°
2026-05-07 16:35 26.74632 34.99506 38913 ft 516 kts 117°
2026-05-07 16:35 26.71915 35.06929 38916 ft 516 kts 117°
2026-05-07 16:36 26.69197 35.14345 38915 ft 515 kts 118°
2026-05-07 16:36 26.66478 35.21747 38917 ft 514 kts 118°
2026-05-07 16:37 26.63758 35.29146 38922 ft 515 kts 118°
2026-05-07 16:37 26.61034 35.36541 38915 ft 514 kts 118°
2026-05-07 16:38 26.58310 35.43922 38906 ft 514 kts 118°
2026-05-07 16:38 26.55573 35.51306 38906 ft 514 kts 119°
2026-05-07 16:39 26.52783 35.58631 38906 ft 513 kts 120°
2026-05-07 16:39 26.49964 35.65959 38908 ft 513 kts 120°
2026-05-07 16:40 26.47151 35.73280 38901 ft 513 kts 120°
2026-05-07 16:40 26.44352 35.80584 38898 ft 513 kts 120°
2026-05-07 16:41 26.41538 35.87906 38897 ft 513 kts 120°
2026-05-07 16:41 26.38724 35.95215 38898 ft 513 kts 120°
2026-05-07 16:42 26.35902 36.02526 38892 ft 513 kts 121°
2026-05-07 16:42 26.33086 36.09825 38888 ft 513 kts 121°
2026-05-07 16:43 26.30261 36.17130 38887 ft 513 kts 121°
2026-05-07 16:43 26.27433 36.24428 38888 ft 513 kts 121°
2026-05-07 16:44 26.24605 36.31711 38887 ft 513 kts 121°
2026-05-07 16:44 26.21768 36.39006 38887 ft 513 kts 121°
2026-05-07 16:45 26.18931 36.46286 38886 ft 513 kts 121°
2026-05-07 16:45 26.15741 36.53309 38889 ft 507 kts 126°
2026-05-07 16:46 26.12379 36.60186 38888 ft 505 kts 127°
2026-05-07 16:46 26.08989 36.67033 38879 ft 505 kts 127°
2026-05-07 16:47 26.05602 36.73869 38879 ft 505 kts 127°
2026-05-07 16:47 26.02218 36.80705 38879 ft 505 kts 127°
2026-05-07 16:48 25.98833 36.87540 38875 ft 505 kts 127°
2026-05-07 16:48 25.95435 36.94385 38869 ft 506 kts 128°
2026-05-07 16:49 25.92032 37.01238 38872 ft 506 kts 128°
2026-05-07 16:49 25.88625 37.08088 38859 ft 506 kts 128°
2026-05-07 16:50 25.85213 37.14933 38860 ft 507 kts 128°
2026-05-07 16:50 25.81801 37.21773 38859 ft 507 kts 128°
2026-05-07 16:51 25.78389 37.28621 38859 ft 507 kts 128°
2026-05-07 16:51 25.74985 37.35464 38862 ft 507 kts 128°
2026-05-07 16:52 25.71582 37.42301 38859 ft 505 kts 129°
2026-05-07 16:52 25.68185 37.49119 38861 ft 505 kts 129°
2026-05-07 16:53 25.64782 37.55923 38859 ft 505 kts 129°
2026-05-07 16:53 25.61380 37.62723 38863 ft 504 kts 129°
2026-05-07 16:54 25.57972 37.69514 38849 ft 504 kts 129°
2026-05-07 16:54 25.54557 37.76310 38851 ft 505 kts 129°
2026-05-07 16:55 25.51146 37.83092 38849 ft 504 kts 129°
2026-05-07 16:55 25.47749 37.89836 38851 ft 505 kts 129°
2026-05-07 16:56 25.44330 37.96614 38843 ft 505 kts 129°
2026-05-07 16:56 25.39197 38.06770 38839 ft 504 kts 129°
2026-05-07 16:57 25.35778 38.13528 38848 ft 503 kts 129°
2026-05-07 16:57 25.32362 38.20273 38833 ft 503 kts 130°
2026-05-07 16:58 25.28939 38.27013 38839 ft 503 kts 130°
2026-05-07 16:58 25.25507 38.33758 38842 ft 503 kts 130°
2026-05-07 16:59 25.22074 38.40499 38841 ft 504 kts 130°
2026-05-07 16:59 25.18639 38.47236 38841 ft 503 kts 130°
2026-05-07 17:00 25.15787 38.52828 38840 ft 502 kts 130°
2026-05-07 17:00 25.12355 38.59534 38843 ft 502 kts 130°
2026-05-07 17:01 25.08915 38.66233 38843 ft 502 kts 130°
2026-05-07 17:01 25.05475 38.72937 38846 ft 502 kts 130°
2026-05-07 17:02 25.02029 38.79632 38852 ft 502 kts 130°
2026-05-07 17:02 24.98583 38.86324 38853 ft 502 kts 130°
2026-05-07 17:03 24.95138 38.93009 39164 ft 500 kts 130°
2026-05-07 17:03 24.93423 38.96333 39366 ft 499 kts 130°
2026-05-07 17:03 24.91707 38.99650 39518 ft 499 kts 130°
2026-05-07 17:04 24.89985 39.02970 39663 ft 499 kts 130°
2026-05-07 17:04 24.88257 39.06296 39751 ft 501 kts 130°
2026-05-07 17:04 24.86527 39.09627 39856 ft 501 kts 130°
2026-05-07 17:04 24.84799 39.12957 39998 ft 501 kts 130°
2026-05-07 17:05 24.83069 39.16290 40134 ft 501 kts 130°
2026-05-07 17:05 24.81340 39.19621 40268 ft 501 kts 130°
2026-05-07 17:05 24.79610 39.22954 40377 ft 501 kts 130°
2026-05-07 17:05 24.77879 39.26283 40510 ft 501 kts 130°
2026-05-07 17:06 24.76150 39.29609 40649 ft 501 kts 130°
2026-05-07 17:06 24.74417 39.32937 40742 ft 502 kts 130°
2026-05-07 17:06 24.72684 39.36261 40862 ft 502 kts 130°
2026-05-07 17:06 24.70941 39.39601 40902 ft 503 kts 130°
2026-05-07 17:07 24.67465 39.46262 40908 ft 502 kts 130°
2026-05-07 17:07 24.63986 39.52918 40908 ft 502 kts 130°
2026-05-07 17:08 24.60507 39.59566 40913 ft 502 kts 130°
2026-05-07 17:08 24.57037 39.66219 40910 ft 504 kts 128°
2026-05-07 17:09 24.55571 39.69761 40918 ft 517 kts 119°
2026-05-07 17:09 24.54585 39.73608 40916 ft 530 kts 109°
2026-05-07 17:09 24.53569 39.81675 40915 ft 537 kts 104°
2026-05-07 17:10 24.52833 39.89850 40908 ft 538 kts 103°
2026-05-07 17:10 24.52110 39.97976 40905 ft 538 kts 104°
2026-05-07 17:11 24.51340 40.06136 40907 ft 537 kts 104°
2026-05-07 17:11 24.50544 40.14291 40907 ft 537 kts 104°
2026-05-07 17:12 24.49740 40.22436 40906 ft 537 kts 104°
2026-05-07 17:12 24.48933 40.30581 40912 ft 537 kts 104°
2026-05-07 17:13 24.48124 40.38723 40914 ft 536 kts 104°
2026-05-07 17:13 24.47311 40.46863 40916 ft 536 kts 104°
2026-05-07 17:14 24.46493 40.55001 40921 ft 536 kts 104°
2026-05-07 17:14 24.45673 40.63137 40934 ft 536 kts 104°
2026-05-07 17:15 24.44849 40.71265 40933 ft 536 kts 104°
2026-05-07 17:15 24.44012 40.79409 40935 ft 537 kts 104°
2026-05-07 17:16 24.43174 40.87544 40934 ft 537 kts 104°
2026-05-07 17:16 24.42331 40.95691 40934 ft 537 kts 104°
2026-05-07 17:17 24.41486 41.03825 40934 ft 537 kts 104°
2026-05-07 17:17 24.40640 41.11963 40966 ft 537 kts 104°
2026-05-07 17:18 24.39786 41.20097 40999 ft 536 kts 104°
2026-05-07 17:18 24.38927 41.28231 41007 ft 537 kts 104°
2026-05-07 17:19 24.38065 41.36359 41008 ft 536 kts 104°
2026-05-07 17:19 24.37200 41.44476 41024 ft 536 kts 104°
2026-05-07 17:20 24.36331 41.52593 41016 ft 536 kts 104°
2026-05-07 17:20 24.35457 41.60713 41030 ft 536 kts 104°
2026-05-07 17:21 24.34579 41.68832 41019 ft 536 kts 104°
2026-05-07 17:21 24.33698 41.76942 41015 ft 536 kts 104°
2026-05-07 17:22 24.32399 41.84908 41032 ft 526 kts 112°
2026-05-07 17:22 24.30474 41.92617 41031 ft 524 kts 114°
2026-05-07 17:23 24.28442 42.00280 41029 ft 523 kts 114°
2026-05-07 17:23 24.26404 42.07927 41035 ft 523 kts 114°
2026-05-07 17:24 24.24377 42.15567 41033 ft 523 kts 114°
2026-05-07 17:24 24.22347 42.23234 41040 ft 523 kts 114°
2026-05-07 17:25 24.20318 42.30887 41046 ft 523 kts 114°
2026-05-07 17:25 24.18286 42.38531 41044 ft 523 kts 114°
2026-05-07 17:26 24.16250 42.46173 41046 ft 523 kts 114°
2026-05-07 17:26 24.14209 42.53816 41051 ft 523 kts 114°
2026-05-07 17:27 24.12165 42.61452 41055 ft 523 kts 114°
2026-05-07 17:27 24.10118 42.69085 41046 ft 522 kts 114°
2026-05-07 17:28 24.08067 42.76715 41044 ft 523 kts 114°
2026-05-07 17:28 24.06010 42.84347 41052 ft 523 kts 114°
2026-05-07 17:29 24.03948 42.91987 41054 ft 523 kts 114°
2026-05-07 17:29 24.01883 42.99621 41053 ft 523 kts 114°
2026-05-07 17:30 23.99827 43.07198 41054 ft 523 kts 114°
2026-05-07 17:30 23.97754 43.14823 41054 ft 522 kts 113°
2026-05-07 17:31 23.95685 43.22422 41054 ft 521 kts 113°
2026-05-07 17:31 23.93617 43.29999 41064 ft 521 kts 113°
2026-05-07 17:32 23.91539 43.37599 41063 ft 521 kts 113°
2026-05-07 17:32 23.89798 43.43947 41063 ft 521 kts 113°
2026-05-07 17:33 23.87375 43.52767 41064 ft 522 kts 113°
2026-05-07 17:33 23.85287 43.60352 41064 ft 522 kts 113°
2026-05-07 17:34 23.83192 43.67948 41064 ft 522 kts 113°
2026-05-07 17:34 23.81098 43.75524 41064 ft 521 kts 114°
2026-05-07 17:35 23.78997 43.83109 41062 ft 522 kts 114°
2026-05-07 17:35 23.77340 43.90870 41058 ft 532 kts 102°
2026-05-07 17:36 23.76597 43.98922 41054 ft 534 kts 100°
2026-05-07 17:36 23.76017 44.07010 41054 ft 535 kts 100°
2026-05-07 17:37 23.75445 44.15102 41057 ft 534 kts 100°
2026-05-07 17:37 23.74848 44.23180 41064 ft 534 kts 100°
2026-05-07 17:38 23.74237 44.31252 41063 ft 533 kts 100°
2026-05-07 17:38 23.73619 44.39322 41061 ft 533 kts 100°
2026-05-07 17:39 23.72999 44.47375 41054 ft 532 kts 100°
2026-05-07 17:39 23.72375 44.55421 41056 ft 532 kts 100°
2026-05-07 17:40 23.71749 44.63457 41054 ft 531 kts 100°
2026-05-07 17:40 23.71119 44.71489 41055 ft 531 kts 100°
2026-05-07 17:41 23.70485 44.79510 41047 ft 530 kts 100°
2026-05-07 17:41 23.69848 44.87516 41045 ft 529 kts 100°
2026-05-07 17:42 23.69212 44.95506 41046 ft 529 kts 100°
2026-05-07 17:42 23.68567 45.03489 41044 ft 528 kts 100°
2026-05-07 17:43 23.68027 45.10112 41038 ft 527 kts 100°
2026-05-07 17:43 23.67270 45.19373 41039 ft 527 kts 100°
2026-05-07 17:44 23.66616 45.27340 41028 ft 527 kts 100°
2026-05-07 17:44 23.65957 45.35308 41025 ft 527 kts 100°
2026-05-07 17:45 23.65402 45.41980 41020 ft 527 kts 100°
2026-05-07 17:45 23.64736 45.49936 41018 ft 527 kts 100°
2026-05-07 17:46 23.64071 45.57839 41014 ft 527 kts 100°
2026-05-07 17:46 23.63396 45.65849 41011 ft 527 kts 100°
2026-05-07 17:47 23.62719 45.73801 41008 ft 527 kts 100°
2026-05-07 17:47 23.62033 45.81754 41008 ft 527 kts 100°
2026-05-07 17:48 23.61348 45.89668 41011 ft 527 kts 100°
2026-05-07 17:48 23.60657 45.97627 41007 ft 527 kts 100°
2026-05-07 17:49 23.59962 46.05581 41001 ft 527 kts 100°
2026-05-07 17:49 23.59263 46.13534 40997 ft 527 kts 100°
2026-05-07 17:50 23.58561 46.21483 40998 ft 526 kts 100°
2026-05-07 17:50 23.57856 46.29419 40998 ft 526 kts 100°
2026-05-07 17:51 23.57146 46.37358 40958 ft 526 kts 100°
2026-05-07 17:51 23.56432 46.45282 40959 ft 525 kts 100°
2026-05-07 17:52 23.55716 46.53201 40953 ft 525 kts 100°
2026-05-07 17:52 23.54998 46.61105 40953 ft 524 kts 100°
2026-05-07 17:53 23.54275 46.69002 40953 ft 523 kts 100°
2026-05-07 17:53 23.53549 46.76887 40955 ft 523 kts 100°
2026-05-07 17:54 23.52820 46.84759 40954 ft 522 kts 100°
2026-05-07 17:54 23.52088 46.92625 40953 ft 521 kts 100°
2026-05-07 17:55 23.51352 47.00481 40945 ft 521 kts 100°
2026-05-07 17:55 23.50613 47.08330 40943 ft 521 kts 100°
2026-05-07 17:56 23.49871 47.16180 40943 ft 520 kts 100°
2026-05-07 17:56 23.49125 47.24018 40943 ft 520 kts 100°
2026-05-07 17:57 23.48503 47.30528 40943 ft 520 kts 100°
2026-05-07 17:57 23.47623 47.39688 40943 ft 520 kts 99°
2026-05-07 17:58 23.46865 47.47526 40943 ft 520 kts 99°
2026-05-07 17:58 23.46108 47.55360 40943 ft 520 kts 99°
2026-05-07 17:59 23.45344 47.63193 40936 ft 520 kts 100°
2026-05-07 17:59 23.44573 47.71027 40934 ft 520 kts 99°
2026-05-07 18:00 23.43806 47.78783 40933 ft 520 kts 99°
2026-05-07 18:00 23.43030 47.86613 40934 ft 520 kts 99°
2026-05-07 18:01 23.42250 47.94443 40935 ft 520 kts 100°
2026-05-07 18:01 23.41466 48.02272 40934 ft 520 kts 99°
2026-05-07 18:02 23.40285 48.13994 40932 ft 519 kts 99°
2026-05-07 18:03 23.39494 48.21793 40924 ft 518 kts 99°
2026-05-07 18:03 23.38699 48.29589 40925 ft 518 kts 99°
2026-05-07 18:03 23.38301 48.33479 40689 ft 517 kts 99°
2026-05-07 18:04 23.37944 48.37373 40091 ft 519 kts 97°
2026-05-07 18:04 23.37739 48.41309 39304 ft 522 kts 95°
2026-05-07 18:04 23.37618 48.45268 38480 ft 525 kts 94°
2026-05-07 18:04 23.37519 48.49245 37696 ft 527 kts 95°
2026-05-07 18:05 23.37413 48.53220 37064 ft 523 kts 95°
2026-05-07 18:05 23.37290 48.57169 36362 ft 522 kts 95°
2026-05-07 18:05 23.37148 48.61116 35545 ft 523 kts 96°
2026-05-07 18:05 23.36992 48.65081 34651 ft 526 kts 96°
2026-05-07 18:06 23.36827 48.69066 33688 ft 530 kts 96°
2026-05-07 18:06 23.36655 48.73092 32690 ft 534 kts 95°
2026-05-07 18:06 23.36480 48.77138 31744 ft 536 kts 95°
2026-05-07 18:06 23.36305 48.81197 30855 ft 537 kts 95°
2026-05-07 18:07 23.36131 48.85248 30076 ft 536 kts 94°
2026-05-07 18:07 23.35958 48.89285 29397 ft 532 kts 94°
2026-05-07 18:07 23.35788 48.93272 29017 ft 522 kts 94°
2026-05-07 18:07 23.35621 48.97156 28922 ft 506 kts 94°
2026-05-07 18:08 23.35460 49.00915 28919 ft 488 kts 94°
2026-05-07 18:08 23.35303 49.04543 28920 ft 472 kts 94°
2026-05-07 18:08 23.35150 49.08060 28922 ft 462 kts 94°
2026-05-07 18:09 23.34836 49.15030 28924 ft 461 kts 94°
2026-05-07 18:09 23.34519 49.22005 28925 ft 461 kts 94°
2026-05-07 18:10 23.34202 49.28966 28925 ft 461 kts 94°
2026-05-07 18:10 23.33885 49.35915 28924 ft 461 kts 94°
2026-05-07 18:11 23.33563 49.42888 28925 ft 460 kts 94°
2026-05-07 18:11 23.33239 49.49848 28924 ft 460 kts 95°
2026-05-07 18:12 23.32910 49.56810 28888 ft 461 kts 94°
2026-05-07 18:12 23.32581 49.63757 28887 ft 461 kts 95°
2026-05-07 18:13 23.32247 49.70728 28887 ft 461 kts 95°
2026-05-07 18:13 23.31911 49.77678 28888 ft 460 kts 95°
2026-05-07 18:14 23.31571 49.84636 28888 ft 460 kts 95°
2026-05-07 18:14 23.31228 49.91595 28888 ft 460 kts 95°
2026-05-07 18:15 23.30882 49.98548 28888 ft 460 kts 95°
2026-05-07 18:15 23.30532 50.05498 28887 ft 460 kts 95°
2026-05-07 18:16 23.30181 50.12432 28888 ft 459 kts 95°
2026-05-07 18:16 23.29827 50.19361 28887 ft 459 kts 95°
2026-05-07 18:17 23.29471 50.26286 28888 ft 459 kts 95°
2026-05-07 18:17 23.29114 50.33173 28888 ft 458 kts 95°
2026-05-07 18:18 23.28752 50.40087 28888 ft 458 kts 95°
2026-05-07 18:18 23.28387 50.47001 28888 ft 458 kts 95°
2026-05-07 18:19 23.28020 50.53914 28879 ft 457 kts 95°
2026-05-07 18:19 23.27649 50.60815 28878 ft 457 kts 95°
2026-05-07 18:20 23.27275 50.67702 28879 ft 457 kts 95°
2026-05-07 18:20 23.26898 50.74620 28878 ft 457 kts 95°
2026-05-07 18:21 23.26519 50.81510 28878 ft 456 kts 95°
2026-05-07 18:21 23.26137 50.88400 28879 ft 457 kts 95°
2026-05-07 18:22 23.25750 50.95296 28879 ft 456 kts 95°
2026-05-07 18:22 23.25361 51.02178 28879 ft 456 kts 95°
2026-05-07 18:23 23.24965 51.09055 28879 ft 456 kts 95°
2026-05-07 18:23 23.24574 51.15934 28878 ft 456 kts 94°
2026-05-07 18:24 23.24183 51.22813 28879 ft 456 kts 95°
2026-05-07 18:24 23.23779 51.29692 28878 ft 456 kts 94°
2026-05-07 18:25 23.23372 51.36559 28867 ft 455 kts 95°
2026-05-07 18:25 23.22965 51.43428 28850 ft 455 kts 94°
2026-05-07 18:26 23.22517 51.50279 28851 ft 454 kts 96°
2026-05-07 18:26 23.21920 51.57116 28850 ft 454 kts 96°
2026-05-07 18:27 23.21304 51.63947 28859 ft 454 kts 96°
2026-05-07 18:27 23.20709 51.70775 28838 ft 454 kts 96°
2026-05-07 18:28 23.20123 51.77603 28844 ft 454 kts 96°
2026-05-07 18:28 23.19635 51.83279 28841 ft 454 kts 96°
2026-05-07 18:29 23.19046 51.90107 28839 ft 454 kts 96°
2026-05-07 18:29 23.18452 51.96935 28839 ft 454 kts 96°
2026-05-07 18:30 23.17854 52.03760 28841 ft 454 kts 96°
2026-05-07 18:30 23.17255 52.10587 28842 ft 453 kts 96°
2026-05-07 18:31 23.16655 52.17402 28837 ft 453 kts 96°
2026-05-07 18:31 23.16050 52.24220 28843 ft 453 kts 96°
2026-05-07 18:32 23.15443 52.31031 28844 ft 453 kts 96°
2026-05-07 18:32 23.14856 52.37841 28841 ft 453 kts 94°
2026-05-07 18:32 23.14944 52.41263 28840 ft 453 kts 83°
2026-05-07 18:33 23.15511 52.44627 28836 ft 453 kts 77°
2026-05-07 18:33 23.17009 52.51278 28830 ft 453 kts 75°
2026-05-07 18:34 23.18639 52.57896 28825 ft 453 kts 75°
2026-05-07 18:34 23.20260 52.64519 28835 ft 453 kts 75°
2026-05-07 18:35 23.21854 52.71158 28830 ft 454 kts 75°
2026-05-07 18:35 23.23433 52.77789 28837 ft 453 kts 75°
2026-05-07 18:36 23.25006 52.84409 28844 ft 452 kts 75°
2026-05-07 18:36 23.26576 52.91032 28841 ft 452 kts 75°
2026-05-07 18:37 23.28133 52.97608 28847 ft 452 kts 75°
2026-05-07 18:37 23.29699 53.04233 28837 ft 452 kts 75°
2026-05-07 18:38 23.31018 53.09826 28838 ft 452 kts 75°
2026-05-07 18:38 23.32537 53.16273 28837 ft 452 kts 75°
2026-05-07 18:39 23.34093 53.22895 28845 ft 452 kts 75°
2026-05-07 18:39 23.35647 53.29524 28842 ft 452 kts 75°
2026-05-07 18:40 23.37197 53.36150 28839 ft 452 kts 75°
2026-05-07 18:40 23.38744 53.42777 28842 ft 452 kts 75°
2026-05-07 18:41 23.40284 53.49385 28841 ft 451 kts 75°
2026-05-07 18:41 23.41827 53.56018 28845 ft 451 kts 75°
2026-05-07 18:42 23.43359 53.62627 28838 ft 450 kts 75°
2026-05-07 18:42 23.44892 53.69239 28836 ft 450 kts 75°
2026-05-07 18:43 23.46420 53.75838 28835 ft 450 kts 75°
2026-05-07 18:43 23.47951 53.82461 28832 ft 450 kts 75°
2026-05-07 18:44 23.49469 53.89063 28830 ft 450 kts 75°
2026-05-07 18:44 23.50988 53.95685 28830 ft 450 kts 75°
2026-05-07 18:45 23.52504 54.02303 28833 ft 450 kts 75°
2026-05-07 18:45 23.54018 54.08917 28834 ft 450 kts 75°
2026-05-07 18:46 23.55526 54.15525 28832 ft 450 kts 75°
2026-05-07 18:46 23.57036 54.22152 28830 ft 450 kts 75°
2026-05-07 18:47 23.58538 54.28758 28831 ft 450 kts 75°
2026-05-07 18:47 23.60043 54.35385 28830 ft 450 kts 75°
2026-05-07 18:48 23.61541 54.42002 28832 ft 449 kts 76°
2026-05-07 18:48 23.63030 54.48605 28835 ft 450 kts 75°
2026-05-07 18:49 23.64527 54.55237 28815 ft 450 kts 75°
2026-05-07 18:49 23.66017 54.61858 28813 ft 450 kts 75°
2026-05-07 18:50 23.67507 54.68489 28825 ft 449 kts 76°
2026-05-07 18:50 23.68986 54.75097 28831 ft 448 kts 76°
2026-05-07 18:51 23.70463 54.81703 28836 ft 448 kts 76°
2026-05-07 18:51 23.71938 54.88312 28832 ft 448 kts 76°
2026-05-07 18:52 23.73410 54.94925 28833 ft 448 kts 76°
2026-05-07 18:52 23.74877 55.01537 28842 ft 448 kts 76°
2026-05-07 18:53 23.76341 55.08149 28837 ft 448 kts 76°
2026-05-07 18:53 23.77802 55.14759 28851 ft 448 kts 76°
2026-05-07 18:54 23.79263 55.21375 28850 ft 448 kts 76°
2026-05-07 18:54 23.80721 55.27990 28859 ft 448 kts 76°
2026-05-07 18:55 23.82174 55.34595 28860 ft 448 kts 76°
2026-05-07 18:55 23.83617 55.41174 28864 ft 449 kts 76°
2026-05-07 18:56 23.85639 55.47582 28870 ft 447 kts 58°
2026-05-07 18:56 23.87508 55.50270 28870 ft 444 kts 43°
2026-05-07 18:56 23.89792 55.52601 28868 ft 443 kts 39°
2026-05-07 18:57 23.94559 55.56869 28875 ft 443 kts 36°
2026-05-07 18:57 23.99375 55.61003 28878 ft 443 kts 36°
2026-05-07 18:58 24.04284 55.65268 28816 ft 464 kts 37°
2026-05-07 18:58 24.09239 55.69633 28753 ft 454 kts 37°
2026-05-07 18:58 24.11707 55.71819 28210 ft 457 kts 37°
2026-05-07 18:59 24.14174 55.74003 27614 ft 455 kts 37°
2026-05-07 18:59 24.16628 55.76178 27071 ft 452 kts 38°
2026-05-07 18:59 24.19061 55.78334 26551 ft 449 kts 38°
2026-05-07 18:59 24.21477 55.80476 26016 ft 445 kts 38°
2026-05-07 19:00 24.23875 55.82602 25500 ft 441 kts 38°
2026-05-07 19:00 24.26249 55.84707 24968 ft 437 kts 38°
2026-05-07 19:00 24.28604 55.86796 24446 ft 434 kts 38°
2026-05-07 19:00 24.30936 55.88860 23904 ft 430 kts 38°
2026-05-07 19:01 24.33312 55.90840 23374 ft 427 kts 36°
2026-05-07 19:01 24.35720 55.92737 22833 ft 424 kts 35°
2026-05-07 19:01 24.38119 55.94591 22303 ft 420 kts 35°
2026-05-07 19:01 24.40494 55.96429 21778 ft 417 kts 36°
2026-05-07 19:02 24.42852 55.98268 21241 ft 414 kts 36°
2026-05-07 19:02 24.45187 56.00106 20710 ft 411 kts 36°
2026-05-07 19:02 24.47493 56.01934 20174 ft 407 kts 36°
2026-05-07 19:02 24.49766 56.03745 19641 ft 402 kts 36°
2026-05-07 19:03 24.52024 56.05546 19103 ft 398 kts 36°
2026-05-07 19:03 24.54249 56.07323 18582 ft 393 kts 37°
2026-05-07 19:03 24.56447 56.09080 18054 ft 388 kts 37°
2026-05-07 19:03 24.58644 56.10775 17537 ft 384 kts 32°
2026-05-07 19:04 24.61034 56.12012 17018 ft 382 kts 19°
2026-05-07 19:04 24.63596 56.12799 16488 ft 380 kts 14°
2026-05-07 19:04 24.66179 56.13387 15981 ft 378 kts 11°
2026-05-07 19:04 24.68752 56.13867 15476 ft 375 kts 10°
2026-05-07 19:05 24.71324 56.14304 14969 ft 372 kts
2026-05-07 19:05 24.73866 56.14729 14579 ft 366 kts
2026-05-07 19:05 24.76364 56.15149 14124 ft 362 kts
2026-05-07 19:05 24.78873 56.15208 13716 ft 358 kts 354°
2026-05-07 19:06 24.81238 56.14572 13587 ft 344 kts 340°
2026-05-07 19:06 24.85486 56.12633 13297 ft 318 kts 337°
2026-05-07 19:06 24.87471 56.11673 13171 ft 305 kts 336°
2026-05-07 19:07 24.89376 56.10745 13022 ft 294 kts 336°
2026-05-07 19:07 24.91212 56.09848 12908 ft 284 kts 337°
2026-05-07 19:07 24.93002 56.08970 12643 ft 280 kts 336°
2026-05-07 19:07 24.94766 56.08103 12356 ft 279 kts 336°
2026-05-07 19:08 24.96559 56.07197 12063 ft 285 kts 333°
2026-05-07 19:08 24.98138 56.05881 11810 ft 286 kts 315°
2026-05-07 19:08 24.99493 56.04271 11590 ft 286 kts 312°
2026-05-07 19:08 25.00812 56.02638 11374 ft 285 kts 312°
2026-05-07 19:09 25.02126 56.01016 11168 ft 283 kts 311°
2026-05-07 19:09 25.03437 55.99402 10954 ft 282 kts 311°
2026-05-07 19:09 25.04750 55.97789 10742 ft 283 kts 311°
2026-05-07 19:09 25.06063 55.96180 10528 ft 281 kts 311°
2026-05-07 19:10 25.07374 55.94580 10310 ft 280 kts 311°
2026-05-07 19:10 25.08674 55.92983 10103 ft 279 kts 311°
2026-05-07 19:10 25.09962 55.91398 9897 ft 277 kts 311°
2026-05-07 19:10 25.11247 55.89818 9696 ft 276 kts 311°
2026-05-07 19:11 25.12524 55.88249 9492 ft 275 kts 311°
2026-05-07 19:11 25.13798 55.86684 9283 ft 273 kts 311°
2026-05-07 19:11 25.14640 55.85650 9145 ft 273 kts 310°
2026-05-07 19:11 25.16166 55.83477 8863 ft 270 kts 302°
2026-05-07 19:12 25.16828 55.82290 8734 ft 268 kts 297°
2026-05-07 19:12 25.17356 55.80349 8558 ft 260 kts 276°
2026-05-07 19:12 25.17507 55.78396 8409 ft 250 kts 272°
2026-05-07 19:12 25.17346 55.76537 8196 ft 241 kts 250°
2026-05-07 19:13 25.16543 55.74952 7943 ft 237 kts 235°
2026-05-07 19:13 25.15427 55.73590 7318 ft 244 kts 218°
2026-05-07 19:13 25.14032 55.72540 6824 ft 240 kts 213°
2026-05-07 19:13 25.12627 55.71591 6411 ft 233 kts 212°
2026-05-07 19:14 25.11259 55.70679 6003 ft 227 kts 212°
2026-05-07 19:14 25.09927 55.69794 5623 ft 221 kts 212°
2026-05-07 19:14 25.08608 55.68920 5258 ft 222 kts 212°
2026-05-07 19:14 25.07286 55.68046 4876 ft 222 kts 212°
2026-05-07 19:15 25.05976 55.67180 4501 ft 217 kts 212°
2026-05-07 19:15 25.04696 55.66331 4113 ft 212 kts 212°
2026-05-07 19:15 25.03628 55.65266 3729 ft 208 kts 240°
2026-05-07 19:15 25.03279 55.63760 3359 ft 203 kts 275°
2026-05-07 19:16 25.03720 55.62305 3056 ft 202 kts 299°
2026-05-07 19:16 25.04705 55.61210 3006 ft 203 kts 326°
2026-05-07 19:16 25.05934 55.60429 2996 ft 204 kts 331°
2026-05-07 19:16 25.07200 55.59709 2995 ft 205 kts 332°
2026-05-07 19:17 25.08478 55.58995 3005 ft 206 kts 332°
2026-05-07 19:17 25.09750 55.58284 3005 ft 205 kts 332°
2026-05-07 19:17 25.11021 55.57574 3003 ft 204 kts 332°
2026-05-07 19:17 25.12282 55.56871 3020 ft 202 kts 332°
2026-05-07 19:18 25.13541 55.56171 3001 ft 204 kts 332°
2026-05-07 19:18 25.14760 55.55380 2991 ft 205 kts 318°
2026-05-07 19:18 25.15629 55.54177 2990 ft 195 kts 300°
2026-05-07 19:18 25.16283 55.52916 2828 ft 185 kts 298°
2026-05-07 19:19 25.16888 55.51694 2582 ft 179 kts 297°
2026-05-07 19:19 25.17493 55.50512 2333 ft 174 kts 299°
2026-05-07 19:19 25.18116 55.49379 2101 ft 172 kts 300°
2026-05-07 19:19 25.18739 55.48264 1864 ft 170 kts 301°
2026-05-07 19:20 25.19356 55.47150 1641 ft 171 kts 300°
2026-05-07 19:20 25.19963 55.46053 1412 ft 162 kts 301°
2026-05-07 19:20 25.20530 55.45023 1198 ft 152 kts 301°
2026-05-07 19:20 25.21060 55.44063 1010 ft 142 kts 302°
2026-05-07 19:21 25.21562 55.43158 822 ft 137 kts 303°
2026-05-07 19:21 25.22059 55.42261 647 ft 137 kts 302°
2026-05-07 19:21 25.22548 55.41365 459 ft 136 kts 302°
2026-05-07 19:21 25.23035 55.40475 267 ft 134 kts 301°
2026-05-07 19:22 25.23528 55.39592 97 ft 135 kts 302°
2026-05-07 19:22 25.24006 55.38720 31 ft 124 kts 304°
2026-05-07 19:22 25.24379 55.38062 32 ft 82 kts 302°
2026-05-07 19:22 25.24599 55.37664 28 ft 38 kts 301°
2026-05-07 19:23 25.24686 55.37503 29 ft 22 kts 297°
2026-05-07 19:23 25.24747 55.37344 29 ft 23 kts 288°
2026-05-07 19:23 25.24778 55.37178 30 ft 6 kts 274°
2026-05-07 19:23 25.24782 55.37130 30 ft 8 kts 275°
2026-05-07 19:24 25.24749 55.37103 29 ft 7 kts 177°
2026-05-07 19:24 25.24699 55.37138 28 ft 10 kts 132°
2026-05-07 19:24 25.24653 55.37210 28 ft 13 kts 121°
2026-05-07 19:24 25.24600 55.37306 28 ft 16 kts 122°
2026-05-07 19:25 25.24536 55.37418 28 ft 17 kts 122°
2026-05-07 19:25 25.24490 55.37501 28 ft 12 kts 122°
2026-05-07 19:25 25.24433 55.37525 27 ft 10 kts 190°
2026-05-07 19:25 25.24364 55.37485 27 ft 9 kts 212°
2026-05-07 19:26 25.24342 55.37470 27 ft 5 kts 212°
2026-05-07 19:26 25.24314 55.37451 27 ft 5 kts 212°
2026-05-07 19:26 25.24304 55.37444 27 ft 0 kts 212°
2026-05-07 19:28 25.24305 55.37445 27 ft 0 kts 211°